Date String (YYYY-MM-DD hh:mm:ss) UTC,Instrument flags,absolute air pressure of the measurement (hPa),sample flow rate (lpm),inlet stack bypass flow (lpm),air temperature of the measurement (°C),ambient temperature measured by the external sensor (°C),aerosol sample conditioner tube jacket temperature (°C),OPC LED temperature (°C),internal box temperature (°C),relative humidity of the measurement (%),span deviation,mass concentration of particles derived from Lorenz-Mie calculation of OPC scattering (μg/m³),mass concentration of particles derived from Lorenz-Mie calculation of OPC scattering (μg/m³),mass concentration of particles derived from Lorenz-Mie calculation of OPC scattering (μg/m³)
DateTimeUTC,F1_M11,P_M11,Q1_M11,Q2_M11,T1_M11,T2_M11,T3_M11,T4_M11,T5_M11,U1_M11,ZSPAN_M11,X2_M11,X0_M11,X1_M11
2024-02-03 20:00:00,SystemResetWarning,0813.3,5.00,000.00,021.2,020.5,000.0,029.7,023.0,23.5,0000.0,0000.87,0001.94,0000.64
2024-02-03 20:01:00,SystemResetWarning,0813.4,5.00,000.00,021.2,020.5,000.0,029.7,023.0,23.5,0000.0,0000.87,0001.45,0000.65
2024-02-03 20:02:00,SystemResetWarning,0813.3,4.99,000.00,021.2,020.5,000.0,029.7,023.0,23.5,0000.0,0000.88,0001.46,0000.66
2024-02-03 20:03:00,SystemResetWarning,0813.4,5.01,000.00,021.2,020.5,000.0,029.7,023.0,23.5,0000.0,0000.88,0001.48,0000.66
2024-02-03 20:04:00,SystemResetWarning,0813.3,5.01,000.00,021.2,020.5,000.0,029.7,023.0,23.5,0000.0,0000.84,0001.41,0000.66
2024-02-03 20:05:00,SystemResetWarning,0813.4,5.00,000.00,021.2,020.5,000.0,029.7,023.0,23.5,0000.0,0000.81,0001.36,0000.64
2024-02-03 20:06:00,SystemResetWarning,0813.3,4.99,000.00,021.2,020.5,000.0,029.7,023.0,23.5,0000.0,0000.79,0001.32,0000.63
2024-02-03 20:07:00,SystemResetWarning,0813.4,5.00,000.00,021.2,020.5,000.0,029.7,023.0,23.5,0000.0,0000.73,0001.11,0000.61
2024-02-03 20:08:00,SystemResetWarning,0813.4,5.00,000.00,021.2,020.5,000.0,029.7,023.0,23.5,0000.0,0000.69,0001.28,0000.58
2024-02-03 20:09:00,SystemResetWarning,0813.4,5.01,000.00,021.2,020.5,000.0,029.7,023.0,23.5,0000.0,0000.65,0001.52,0000.56
2024-02-03 20:10:00,SystemResetWarning,0813.4,5.00,000.00,021.2,020.5,000.0,029.6,023.0,23.5,0000.0,0000.62,0001.46,0000.54
2024-02-03 20:11:00,SystemResetWarning,0813.4,4.99,000.00,021.2,020.5,000.0,029.6,023.0,23.5,0000.0,0000.58,0001.39,0000.51
2024-02-03 20:12:00,SystemResetWarning,0813.4,5.00,000.00,021.2,020.5,000.0,029.6,022.9,23.5,0000.0,0000.55,0001.33,0000.49
2024-02-03 20:13:00,SystemResetWarning,0813.4,5.00,000.00,021.2,020.5,000.0,029.6,022.9,23.5,0000.0,0000.52,0001.30,0000.46
2024-02-03 20:14:00,SystemResetWarning,0813.3,5.00,000.00,021.2,020.5,000.0,029.6,022.9,23.5,0000.0,0000.51,0001.31,0000.44
2024-02-03 20:15:00,SystemResetWarning,0813.4,5.00,000.00,021.2,020.5,000.0,029.6,022.9,23.5,0000.0,0000.49,0001.28,0000.43
2024-02-03 20:16:00,SystemResetWarning,0813.4,5.00,000.00,021.2,020.5,000.0,029.6,023.0,23.5,0000.0,0000.50,0001.30,0000.42
2024-02-03 20:17:00,SystemResetWarning,0813.4,5.00,000.00,021.2,020.5,000.0,029.6,022.9,23.5,0000.0,0000.49,0001.30,0000.41
2024-02-03 20:18:00,SystemResetWarning,0813.4,5.01,000.00,021.2,020.5,000.0,029.6,022.9,23.5,0000.0,0000.48,0001.29,0000.40
2024-02-03 20:19:00,SystemResetWarning,0813.4,5.01,000.00,021.1,020.5,000.0,029.6,022.9,23.5,0000.0,0000.47,0001.03,0000.40
2024-02-03 20:20:00,SystemResetWarning,0813.4,5.00,000.00,021.1,020.5,000.0,029.6,022.9,23.5,0000.0,0000.46,0000.70,0000.39
2024-02-03 20:21:00,SystemResetWarning,0813.4,4.99,000.00,021.1,020.4,000.0,029.6,022.9,23.5,0000.0,0000.44,0000.66,0000.37
2024-02-03 20:22:00,SystemResetWarning,0813.5,5.00,000.00,021.1,020.4,000.0,029.6,022.9,23.5,0000.0,0000.42,0000.63,0000.36
2024-02-03 20:23:00,SystemResetWarning,0813.4,5.00,000.00,021.1,020.4,000.0,029.6,022.9,23.5,0000.0,0000.40,0000.61,0000.34
2024-02-03 20:24:00,SystemResetWarning,0813.4,5.01,000.00,021.1,020.4,000.0,029.6,022.9,23.5,0000.0,0000.39,0000.59,0000.32
2024-02-03 20:25:00,SystemResetWarning,0813.4,5.00,000.00,021.1,020.4,000.0,029.6,022.9,23.5,0000.0,0000.35,0000.50,0000.30
2024-02-03 20:26:00,SystemResetWarning,0813.5,5.00,000.00,021.1,020.4,000.0,029.6,022.9,23.5,0000.0,0000.31,0000.46,0000.27
2024-02-03 20:27:00,SystemResetWarning,0813.5,5.00,000.00,021.1,020.4,000.0,029.6,022.9,23.5,0000.0,0000.29,0000.40,0000.25
2024-02-03 20:28:00,SystemResetWarning,0813.5,5.01,000.00,021.1,020.4,000.0,029.6,022.9,23.5,0000.0,0000.27,0000.38,0000.24
2024-02-03 20:29:00,SystemResetWarning,0813.5,5.00,000.00,021.1,020.4,000.0,029.6,022.9,23.6,0000.0,0000.26,0000.36,0000.22
2024-02-03 20:30:00,SystemResetWarning,0813.5,5.00,000.00,021.1,020.4,000.0,029.6,022.9,23.5,0000.0,0000.23,0000.32,0000.20
2024-02-03 20:31:00,SystemResetWarning,0813.5,5.00,000.00,021.1,020.4,000.0,029.5,022.8,23.6,0000.0,0000.19,0000.28,0000.17
2024-02-03 20:32:00,SystemResetWarning,0813.5,5.00,000.00,021.1,020.4,000.0,029.5,022.8,23.6,0000.0,0000.18,0000.26,0000.16
2024-02-03 20:33:00,SystemResetWarning,0813.6,5.00,000.00,021.1,020.4,000.0,029.5,022.8,23.6,0000.0,0000.16,0000.24,0000.14
2024-02-03 20:34:00,SystemResetWarning,0813.6,5.00,000.00,021.1,020.4,000.0,029.5,022.8,23.6,0000.0,0000.14,0000.19,0000.13
2024-02-03 20:35:00,SystemResetWarning,0813.5,4.99,000.00,021.1,020.4,000.0,029.5,022.8,23.6,0000.0,0000.13,0000.17,0000.13
2024-02-03 20:36:00,SystemResetWarning,0813.6,4.99,000.00,021.1,020.4,000.0,029.5,022.8,23.5,0000.0,0000.12,0000.16,0000.12
2024-02-03 20:37:00,SystemResetWarning,0813.6,5.01,000.00,021.1,020.4,000.0,029.5,022.8,23.5,0000.0,0000.11,0000.14,0000.11
2024-02-03 20:38:00,SystemResetWarning,0813.6,5.01,000.00,021.1,020.4,000.0,029.5,022.8,23.6,0000.0,0000.10,0000.13,0000.10
2024-02-03 20:39:00,SystemResetWarning,0813.5,5.00,000.00,021.1,020.4,000.0,029.5,022.9,23.6,0000.0,0000.10,0000.12,0000.10
2024-02-03 20:40:00,SystemResetWarning,0813.6,4.99,000.00,021.1,020.4,000.0,029.5,022.8,23.5,0000.0,0000.10,0000.12,0000.10
2024-02-03 20:41:00,SystemResetWarning,0813.6,5.00,000.00,021.1,020.4,000.0,029.5,022.8,23.5,0000.0,0000.09,0000.12,0000.09
2024-02-03 20:42:00,SystemResetWarning,0813.6,5.01,000.00,021.1,020.4,000.0,029.5,022.8,23.5,0000.0,0000.09,0000.12,0000.09
2024-02-03 20:43:00,SystemResetWarning,0813.5,5.00,000.00,021.1,020.4,000.0,029.5,022.8,23.5,0000.0,0000.10,0000.15,0000.10
2024-02-03 20:44:00,SystemResetWarning,0813.6,5.00,000.00,021.1,020.4,000.0,029.5,022.8,23.5,0000.0,0000.10,0000.15,0000.09
2024-02-03 20:45:00,SystemResetWarning,0813.6,5.00,000.00,021.1,020.4,000.0,029.5,022.8,23.5,0000.0,0000.10,0000.14,0000.09
2024-02-03 20:46:00,SystemResetWarning,0813.6,5.00,000.00,021.1,020.4,000.0,029.5,022.8,23.5,0000.0,0000.09,0000.13,0000.08
2024-02-03 20:47:00,SystemResetWarning,0813.6,5.00,000.00,021.1,020.4,000.0,029.5,022.8,23.5,0000.0,0000.09,0000.13,0000.08
2024-02-03 20:48:00,SystemResetWarning,0813.7,4.99,000.00,021.1,020.4,000.0,029.5,022.8,23.5,0000.0,0000.09,0000.13,0000.08
2024-02-03 20:49:00,SystemResetWarning,0813.7,4.99,000.00,021.1,020.4,000.0,029.5,022.8,23.5,0000.0,0000.09,0000.15,0000.08
2024-02-03 20:50:00,SystemResetWarning,0813.7,5.00,000.00,021.1,020.4,000.0,029.5,022.8,23.5,0000.0,0000.10,0000.17,0000.08
2024-02-03 20:51:00,SystemResetWarning,0813.7,5.00,000.00,021.1,020.4,000.0,029.5,022.8,23.5,0000.0,0000.10,0000.18,0000.08
2024-02-03 20:52:00,SystemResetWarning,0813.7,5.00,000.00,021.1,020.4,000.0,029.5,022.8,23.5,0000.0,0000.10,0000.18,0000.08
2024-02-03 20:53:00,SystemResetWarning,0813.7,5.01,000.00,021.1,020.4,000.0,029.5,022.8,23.5,0000.0,0000.11,0000.18,0000.08
2024-02-03 20:54:00,SystemResetWarning,0813.8,5.01,000.00,021.1,020.4,000.0,029.5,022.8,23.5,0000.0,0000.10,0000.17,0000.08
2024-02-03 20:55:00,SystemResetWarning,0813.8,5.00,000.00,021.1,020.4,000.0,029.5,022.8,23.5,0000.0,0000.11,0000.18,0000.09
2024-02-03 20:56:00,SystemResetWarning,0813.8,5.00,000.00,021.1,020.4,000.0,029.5,022.8,23.5,0000.0,0000.12,0000.19,0000.10
2024-02-03 20:57:00,SystemResetWarning,0813.8,5.01,000.00,021.1,020.4,000.0,029.5,022.8,23.6,0000.0,0000.13,0000.20,0000.11
2024-02-03 20:58:00,SystemResetWarning,0813.8,4.99,000.00,021.0,020.4,000.0,029.5,022.8,23.6,0000.0,0000.14,0000.21,0000.12
2024-02-03 20:59:00,SystemResetWarning,0813.8,4.99,000.00,021.0,020.4,000.0,029.5,022.8,23.6,0000.0,0000.16,0000.25,0000.14
